When you browse on this site, cookies collect data to enhance your experience and personalize the content and advertising you see.
Visit our Privacy Policy to learn more. By continuing to use the site, you agree to this use of cookies and data.

Hourly Weather Brusy

Today, 10 July, Friday

Time Temperature Precipitation Wind Pressure Humidity
00:00 +12°C° 0 mm 1 mps 749 mmHg 86%
01:00 +12°C° 0 mm 1 mps 749 mmHg 88%
02:00 +11°C° 0 mm 1 mps 749 mmHg 90%
03:00 +12°C° 0 mm 1 mps 749 mmHg 89%
04:00 +12°C° 0 mm 2 mps 749 mmHg 89%
05:00 +12°C° 0 mm 2 mps 749 mmHg 89%
06:00 +13°C° 0 mm 3 mps 749 mmHg 83%
07:00 +15°C° 0 mm 4 mps 749 mmHg 77%
08:00 +18°C° 0 mm 4 mps 749 mmHg 72%
09:00 +19°C° 0 mm 5 mps 748 mmHg 70%
10:00 +19°C° 0 mm 5 mps 748 mmHg 69%
11:00 +20°C° 0 mm 6 mps 748 mmHg 67%
12:00 +21°C° 0 mm 6 mps 747 mmHg 65%
13:00 +22°C° 0 mm 6 mps 747 mmHg 64%
14:00 +23°C° 0 mm 6 mps 747 mmHg 62%
15:00 +23°C° 0.2 mm 5 mps 746 mmHg 66%
16:00 +23°C° 0.2 mm 5 mps 746 mmHg 71%
17:00 +23°C° 0.2 mm 5 mps 746 mmHg 75%
18:00 +22°C° 0.8 mm 4 mps 746 mmHg 80%
19:00 +21°C° 0.8 mm 4 mps 746 mmHg 85%
20:00 +20°C° 0.8 mm 4 mps 746 mmHg 91%
21:00 +20°C° 0.4 mm 4 mps 746 mmHg 92%
22:00 +19°C° 0.4 mm 4 mps 746 mmHg 93%
23:00 +19°C° 0.4 mm 4 mps 746 mmHg 95%

Tomorrow, 11 July, Saturday

Time Temperature Precipitation Wind Pressure Humidity
00:00 +19°C° 0 mm 4 mps 746 mmHg 95%
01:00 +19°C° 0 mm 4 mps 746 mmHg 96%
02:00 +19°C° 0 mm 4 mps 746 mmHg 96%
03:00 +19°C° 0.1 mm 4 mps 746 mmHg 96%
04:00 +19°C° 0.1 mm 5 mps 746 mmHg 96%
05:00 +19°C° 0.1 mm 5 mps 746 mmHg 96%
06:00 +20°C° 0 mm 5 mps 746 mmHg 92%
07:00 +21°C° 0 mm 5 mps 746 mmHg 89%
08:00 +22°C° 0 mm 5 mps 746 mmHg 85%
09:00 +25°C° 0 mm 5 mps 747 mmHg 80%
10:00 +26°C° 0 mm 4 mps 747 mmHg 74%
11:00 +28°C° 0 mm 4 mps 747 mmHg 68%
12:00 +27°C° 1.1 mm 4 mps 747 mmHg 71%
13:00 +27°C° 1.1 mm 4 mps 747 mmHg 75%
14:00 +27°C° 1.1 mm 4 mps 747 mmHg 78%
15:00 +26°C° 0.9 mm 3 mps 747 mmHg 78%
16:00 +26°C° 0.9 mm 3 mps 747 mmHg 79%
17:00 +25°C° 0.9 mm 3 mps 747 mmHg 79%
18:00 +22°C° 0.3 mm 3 mps 747 mmHg 82%
19:00 +20°C° 0.3 mm 3 mps 748 mmHg 84%
20:00 +19°C° 0.3 mm 3 mps 748 mmHg 87%
21:00 +18°C° 0.7 mm 3 mps 748 mmHg 89%
22:00 +17°C° 0.7 mm 3 mps 748 mmHg 91%
23:00 +16°C° 0.7 mm 3 mps 748 mmHg 93%

Day after tomorrow, 12 July, Sunday

Time Temperature Precipitation Wind Pressure Humidity
00:00 +16°C° 0.5 mm 3 mps 748 mmHg 93%
01:00 +14°C° 0.5 mm 3 mps 748 mmHg 93%
02:00 +14°C° 0.5 mm 4 mps 748 mmHg 93%
03:00 +13°C° 0.2 mm 4 mps 748 mmHg 93%
04:00 +13°C° 0.2 mm 4 mps 748 mmHg 92%
05:00 +12°C° 0.2 mm 3 mps 748 mmHg 92%
06:00 +12°C° 0.3 mm 3 mps 748 mmHg 93%
07:00 +12°C° 0.3 mm 3 mps 749 mmHg 93%
08:00 +12°C° 0.3 mm 3 mps 749 mmHg 94%
09:00 +13°C° 0.1 mm 3 mps 749 mmHg 93%
10:00 +13°C° 0.1 mm 3 mps 749 mmHg 92%
11:00 +13°C° 0.1 mm 4 mps 749 mmHg 92%
12:00 +14°C° 0.1 mm 4 mps 749 mmHg 90%
13:00 +14°C° 0.1 mm 4 mps 749 mmHg 88%
14:00 +14°C° 0.1 mm 5 mps 749 mmHg 86%
15:00 +14°C° 0.2 mm 5 mps 749 mmHg 88%
16:00 +13°C° 0.2 mm 5 mps 748 mmHg 90%
17:00 +12°C° 0.2 mm 5 mps 748 mmHg 92%
18:00 +12°C° 0.5 mm 5 mps 748 mmHg 93%
19:00 +10°C° 0.5 mm 5 mps 748 mmHg 94%
20:00 +10°C° 0.5 mm 5 mps 748 mmHg 95%
21:00 +10°C° 0.3 mm 5 mps 748 mmHg 94%
22:00 +11°C° 0.3 mm 4 mps 748 mmHg 94%
23:00 +10°C° 0.3 mm 4 mps 748 mmHg 94%

13 July, Monday

Time Temperature Precipitation Wind Pressure Humidity
00:00 +10°C° 0.7 mm 3 mps 748 mmHg 94%
01:00 +10°C° 0.7 mm 3 mps 747 mmHg 94%
02:00 +10°C° 0.7 mm 3 mps 747 mmHg 94%
03:00 +10°C° 0.4 mm 3 mps 747 mmHg 94%
04:00 +10°C° 0.4 mm 3 mps 747 mmHg 95%
05:00 +10°C° 0.4 mm 3 mps 747 mmHg 95%
06:00 +11°C° 0 mm 3 mps 747 mmHg 93%
07:00 +12°C° 0 mm 3 mps 747 mmHg 91%
08:00 +13°C° 0 mm 4 mps 747 mmHg 89%
09:00 +14°C° 0 mm 4 mps 747 mmHg 83%
10:00 +15°C° 0 mm 4 mps 747 mmHg 77%
11:00 +18°C° 0 mm 4 mps 747 mmHg 70%
12:00 +18°C° 0.1 mm 4 mps 746 mmHg 68%
13:00 +19°C° 0.1 mm 4 mps 746 mmHg 65%
14:00 +20°C° 0.1 mm 4 mps 746 mmHg 62%
15:00 +19°C° 0.2 mm 4 mps 746 mmHg 66%
16:00 +19°C° 0.2 mm 4 mps 745 mmHg 69%
17:00 +19°C° 0.2 mm 3 mps 745 mmHg 73%
18:00 +18°C° 0.1 mm 3 mps 745 mmHg 78%
19:00 +16°C° 0.1 mm 3 mps 745 mmHg 82%
20:00 +14°C° 0.1 mm 3 mps 745 mmHg 87%
21:00 +13°C° 0 mm 3 mps 745 mmHg 88%
22:00 +12°C° 0 mm 3 mps 745 mmHg 90%
23:00 +12°C° 0 mm 3 mps 745 mmHg 91%

14 July, Tuesday

Time Temperature Precipitation Wind Pressure Humidity
00:00 +11°C° 0 mm 3 mps 745 mmHg 91%
01:00 +11°C° 0 mm 3 mps 745 mmHg 91%
02:00 +11°C° 0 mm 3 mps 745 mmHg 91%
03:00 +11°C° 0 mm 3 mps 745 mmHg 91%
04:00 +11°C° 0 mm 3 mps 745 mmHg 90%
05:00 +11°C° 0 mm 4 mps 745 mmHg 89%
06:00 +12°C° 0 mm 4 mps 745 mmHg 83%
07:00 +14°C° 0 mm 4 mps 745 mmHg 76%
08:00 +17°C° 0 mm 4 mps 745 mmHg 70%
09:00 +18°C° 0 mm 4 mps 745 mmHg 66%
10:00 +19°C° 0 mm 5 mps 745 mmHg 62%
11:00 +20°C° 0 mm 5 mps 745 mmHg 59%
12:00 +20°C° 0.2 mm 5 mps 745 mmHg 60%
13:00 +21°C° 0.2 mm 5 mps 745 mmHg 61%
14:00 +21°C° 0.2 mm 5 mps 745 mmHg 62%
15:00 +21°C° 0.2 mm 5 mps 745 mmHg 63%
16:00 +20°C° 0.2 mm 5 mps 745 mmHg 64%
17:00 +20°C° 0.2 mm 5 mps 744 mmHg 64%
18:00 +19°C° 0 mm 4 mps 745 mmHg 68%
19:00 +17°C° 0 mm 4 mps 745 mmHg 71%
20:00 +14°C° 0 mm 3 mps 745 mmHg 75%
21:00 +14°C° 0 mm 3 mps 745 mmHg 75%
22:00 +13°C° 0 mm 3 mps 745 mmHg 76%
23:00 +12°C° 0 mm 3 mps 746 mmHg 77%

15 July, Wednesday

Time Temperature Precipitation Wind Pressure Humidity
00:00 +11°C° 0 mm 3 mps 746 mmHg 77%
01:00 +11°C° 0 mm 3 mps 746 mmHg 78%
02:00 +10°C° 0 mm 3 mps 746 mmHg 79%
03:00 +10°C° 0 mm 3 mps 746 mmHg 80%
04:00 +10°C° 0 mm 3 mps 747 mmHg 81%
05:00 +10°C° 0 mm 3 mps 747 mmHg 82%
06:00 +12°C° 0 mm 3 mps 747 mmHg 77%
07:00 +15°C° 0 mm 2 mps 747 mmHg 72%
08:00 +17°C° 0 mm 2 mps 747 mmHg 66%
09:00 +18°C° 0 mm 3 mps 747 mmHg 62%
10:00 +19°C° 0 mm 3 mps 747 mmHg 58%
11:00 +21°C° 0 mm 3 mps 747 mmHg 55%
12:00 +21°C° 0 mm 3 mps 747 mmHg 54%
13:00 +22°C° 0 mm 3 mps 747 mmHg 53%
14:00 +22°C° 0 mm 3 mps 748 mmHg 52%
15:00 +22°C° 0 mm 3 mps 747 mmHg 53%
16:00 +22°C° 0 mm 3 mps 747 mmHg 55%
17:00 +22°C° 0 mm 3 mps 747 mmHg 57%
18:00 +20°C° 0 mm 2 mps 747 mmHg 64%
19:00 +19°C° 0 mm 1 mps 747 mmHg 71%
20:00 +16°C° 0 mm 1 mps 748 mmHg 78%
21:00 +16°C° 0 mm 1 mps 748 mmHg 81%
22:00 +15°C° 0 mm 1 mps 748 mmHg 83%
23:00 +14°C° 0 mm 1 mps 748 mmHg 85%
Show more